Date String (YYYY-MM-DD hh:mm:ss) UTC,Instrument flags,Ambient pressure (hPa),Sample flow (lpm),Bypass flow (lpm),Sample temperature (°C),Ambient temperature (°C),ASC tube jacket temperature (°C),LED temperature (°C),Box temperature (°C),Sample RH (%),Span deviation,Mass concentration (μg/m³),Mass concentration (μg/m³),Mass concentration (μg/m³)
DateTimeUTC,F1_M11,P_M11,Q1_M11,Q2_M11,T1_M11,T2_M11,T3_M11,T4_M11,T5_M11,U1_M11,ZSPAN_M11,X0_M11,X2_M11,X1_M11
2023-01-08 00:00:00,,0830.1,5.01,0.00,27.2,25.0,00.0,36.4,28.8,10.8,0003.8,0018.75,0014.07,0013.36
2023-01-08 00:01:00,,0830.1,4.99,0.00,27.1,25.0,00.0,36.3,28.8,10.8,0003.7,0019.35,0014.21,0013.47
2023-01-08 00:02:00,,0830.0,5.00,0.00,27.1,25.1,00.0,36.3,28.8,11.1,0003.6,0019.82,0014.34,0013.56
2023-01-08 00:03:00,,0830.1,5.00,0.00,27.1,25.2,00.0,36.2,28.8,11.1,0003.5,0020.53,0014.49,0013.66
2023-01-08 00:04:00,,0830.1,4.99,0.00,27.1,25.2,00.0,36.2,28.8,11.0,0003.7,0020.39,0014.54,0013.73
2023-01-08 00:05:00,,0830.1,5.00,0.00,27.1,25.2,00.0,36.2,28.8,10.9,0003.9,0020.94,0014.59,0013.77
2023-01-08 00:06:00,,0830.1,5.00,0.00,27.1,25.3,00.0,36.2,28.8,10.8,0004.0,0021.08,0014.57,0013.78
2023-01-08 00:07:00,,0830.1,5.00,0.00,27.1,25.4,00.0,36.1,28.9,10.8,0004.2,0021.18,0014.62,0013.80
2023-01-08 00:08:00,,0830.1,5.00,0.00,27.1,25.5,00.0,36.1,28.9,10.9,0004.7,0021.29,0014.59,0013.80
2023-01-08 00:09:00,,0830.1,5.00,0.00,27.1,25.6,00.0,36.1,28.9,10.9,0004.7,0021.61,0014.61,0013.80
2023-01-08 00:10:00,,0830.1,5.01,0.00,27.2,25.6,00.0,36.1,28.9,10.9,0004.7,0022.20,0014.64,0013.80
2023-01-08 00:11:00,,0830.1,5.00,0.00,27.2,25.7,00.0,36.1,28.9,10.8,0004.8,0021.80,0014.63,0013.80
2023-01-08 00:12:00,,0830.1,4.99,0.00,27.2,25.6,00.0,36.1,28.9,10.5,0004.8,0021.36,0014.55,0013.75
2023-01-08 00:13:00,,0830.1,5.00,0.00,27.2,25.6,00.0,36.1,28.9,10.5,0004.9,0020.90,0014.48,0013.69
2023-01-08 00:14:00,,0830.1,5.00,0.00,27.2,25.6,00.0,36.1,28.9,10.5,0005.0,0020.62,0014.38,0013.66
2023-01-08 00:15:00,,0830.1,5.01,0.00,27.2,25.6,00.0,36.1,28.9,10.6,0004.8,0021.16,0014.31,0013.62
2023-01-08 00:16:00,,0830.1,5.01,0.00,27.2,25.6,00.0,36.1,28.9,10.7,0004.4,0020.77,0014.32,0013.59
2023-01-08 00:17:00,,0830.1,5.00,0.00,27.2,25.6,00.0,36.0,28.9,10.7,0004.5,0020.98,0014.36,0013.61
2023-01-08 00:18:00,,0830.1,5.00,0.00,27.2,25.7,00.0,36.0,28.9,10.7,0004.3,0020.92,0014.32,0013.60
2023-01-08 00:19:00,,0830.1,5.00,0.00,27.2,25.7,00.0,36.0,28.9,10.7,0003.9,0020.64,0014.28,0013.57
2023-01-08 00:20:00,,0830.1,5.00,0.00,27.2,25.7,00.0,36.0,28.9,10.7,0003.6,0020.40,0014.27,0013.54
2023-01-08 00:21:00,,0830.1,5.00,0.00,27.2,25.7,00.0,36.0,28.9,10.7,0003.5,0020.07,0014.26,0013.53
2023-01-08 00:22:00,,0830.1,5.00,0.00,27.2,25.7,00.0,36.0,28.9,10.6,0003.5,0019.87,0014.24,0013.48
2023-01-08 00:23:00,,0830.1,5.00,0.00,27.2,25.6,00.0,36.0,28.9,10.7,0003.7,0020.99,0014.35,0013.51
2023-01-08 00:24:00,,0830.1,4.99,0.00,27.2,25.6,00.0,36.0,28.9,10.8,0003.8,0021.33,0014.46,0013.61
2023-01-08 00:25:00,,0830.1,5.00,0.00,27.2,25.6,00.0,36.0,28.9,10.8,0003.6,0021.27,0014.64,0013.76
2023-01-08 00:26:00,,0830.1,5.00,0.00,27.2,25.6,00.0,36.0,28.9,10.9,0003.6,0020.78,0014.83,0013.93
2023-01-08 00:27:00,,0830.1,5.00,0.00,27.2,25.6,00.0,36.0,28.9,10.9,0003.6,0020.66,0014.95,0014.05
2023-01-08 00:28:00,,0830.1,5.00,0.00,27.2,25.6,00.0,36.0,28.9,10.9,0003.4,0020.38,0015.09,0014.18
2023-01-08 00:29:00,,0830.0,5.00,0.00,27.1,25.6,00.0,36.0,28.9,11.0,0003.3,0020.58,0015.28,0014.35
2023-01-08 00:30:00,,0830.0,5.01,0.00,27.1,25.5,00.0,36.0,28.9,11.0,0003.5,0021.64,0015.50,0014.57
2023-01-08 00:31:00,,0830.1,5.01,0.00,27.1,25.6,00.0,36.0,28.9,11.0,0003.8,0022.43,0015.69,0014.76
2023-01-08 00:32:00,,0830.1,5.00,0.00,27.1,25.6,00.0,36.0,28.9,11.0,0003.9,0022.76,0015.82,0014.93
2023-01-08 00:33:00,,0830.1,5.01,0.00,27.1,25.6,00.0,36.0,28.9,11.0,0004.1,0022.78,0015.98,0015.11
2023-01-08 00:34:00,,0830.1,4.99,0.00,27.1,25.6,00.0,36.0,28.9,11.0,0004.1,0021.91,0016.09,0015.27
2023-01-08 00:35:00,,0830.1,5.00,0.00,27.1,25.5,00.0,36.0,28.9,11.0,0004.1,0022.19,0016.25,0015.41
2023-01-08 00:36:00,,0830.1,4.99,0.00,27.1,25.4,00.0,36.0,28.9,11.0,0004.0,0022.48,0016.33,0015.46
2023-01-08 00:37:00,,0830.1,4.99,0.00,27.1,25.4,00.0,36.0,28.8,11.0,0003.8,0022.46,0016.34,0015.48
2023-01-08 00:38:00,,0830.1,5.00,0.00,27.1,25.4,00.0,36.0,28.8,11.0,0003.9,0022.27,0016.31,0015.51
2023-01-08 00:39:00,,0830.1,4.98,0.00,27.1,25.3,00.0,36.0,28.8,11.1,0003.9,0022.31,0016.33,0015.53
2023-01-08 00:40:00,,0830.0,5.02,0.00,27.0,25.2,00.0,36.0,28.8,11.1,0003.9,0022.60,0016.34,0015.54
2023-01-08 00:41:00,,0830.1,5.00,0.00,27.0,25.1,00.0,36.0,28.7,11.1,0003.8,0022.04,0016.31,0015.51
2023-01-08 00:42:00,,0830.1,4.99,0.00,27.0,25.1,00.0,35.9,28.7,11.2,0003.7,0021.58,0016.34,0015.52
2023-01-08 00:43:00,,0830.1,5.00,0.00,27.0,25.0,00.0,35.9,28.7,11.2,0003.8,0021.37,0016.40,0015.54
2023-01-08 00:44:00,,0830.1,5.01,0.00,26.9,25.0,00.0,35.9,28.6,11.2,0003.6,0021.73,0016.45,0015.58
2023-01-08 00:45:00,,0830.1,5.00,0.00,26.9,25.1,00.0,35.9,28.7,11.3,0003.4,0021.92,0016.50,0015.62
2023-01-08 00:46:00,,0830.0,5.01,0.00,26.9,25.2,00.0,35.8,28.7,11.4,0003.2,0022.07,0016.52,0015.65
2023-01-08 00:47:00,,0830.0,5.01,0.00,26.9,25.2,00.0,35.8,28.7,11.4,0003.3,0022.01,0016.53,0015.69
2023-01-08 00:48:00,,0830.0,5.00,0.00,26.9,25.3,00.0,35.8,28.7,11.5,0003.4,0022.08,0016.57,0015.71
2023-01-08 00:49:00,,0830.0,5.00,0.00,26.9,25.3,00.0,35.8,28.7,11.5,0003.4,0023.57,0016.65,0015.75
2023-01-08 00:50:00,,0830.0,5.01,0.00,26.9,25.4,00.0,35.8,28.7,11.5,0003.4,0024.02,0016.68,0015.76
2023-01-08 00:51:00,,0830.0,5.00,0.00,26.9,25.4,00.0,35.8,28.6,11.4,0003.2,0023.82,0016.73,0015.76
2023-01-08 00:52:00,,0830.0,5.00,0.00,26.9,25.3,00.0,35.8,28.6,11.4,0003.0,0024.47,0016.76,0015.77
2023-01-08 00:53:00,,0830.0,4.99,0.00,26.9,25.2,00.0,35.8,28.6,11.3,0003.0,0024.43,0016.71,0015.75
2023-01-08 00:54:00,,0830.0,5.00,0.00,26.8,25.1,00.0,35.8,28.5,11.2,0002.8,0024.28,0016.63,0015.72
2023-01-08 00:55:00,,0830.0,5.01,0.00,26.8,25.1,00.0,35.7,28.6,11.0,0003.1,0024.18,0016.52,0015.62
2023-01-08 00:56:00,,0830.0,5.00,0.00,26.8,25.1,00.0,35.7,28.6,11.0,0003.4,0024.76,0016.43,0015.53
2023-01-08 00:57:00,,0829.9,5.00,0.00,26.8,25.1,00.0,35.7,28.6,11.0,0003.6,0024.66,0016.37,0015.47
2023-01-08 00:58:00,,0829.9,5.00,0.00,26.8,25.1,00.0,35.7,28.5,11.1,0004.0,0024.43,0016.32,0015.42
2023-01-08 00:59:00,,0829.9,5.00,0.00,26.8,25.1,00.0,35.7,28.6,11.2,0003.9,0024.63,0016.19,0015.33
